TimeMST,TemperatureF,Dew PointF,Humidity,Sea Level PressureIn,VisibilityMPH,Wind Direction,Wind SpeedMPH,Gust SpeedMPH,PrecipitationIn,Events,Conditions,WindDirDegrees,DateUTC
12:51 AM,57.0,33.1,40,29.69,6.0,West,34.5,49.5,N/A,,Widespread Dust,260,2013-03-09 07:51:00
1:51 AM,51.1,34.0,52,29.74,10.0,NW,11.5,-,N/A,,Scattered Clouds,310,2013-03-09 08:51:00
2:51 AM,48.0,33.1,56,29.77,10.0,NW,12.7,20.7,N/A,,Scattered Clouds,310,2013-03-09 09:51:00
3:51 AM,45.0,33.1,63,29.76,8.0,WNW,19.6,31.1,N/A,,Partly Cloudy,300,2013-03-09 10:51:00
4:51 AM,44.1,30.9,60,29.77,10.0,NW,16.1,26.5,N/A,,Partly Cloudy,310,2013-03-09 11:51:00
5:51 AM,45.0,28.9,53,29.78,10.0,WNW,16.1,26.5,N/A,,Scattered Clouds,290,2013-03-09 12:51:00
6:51 AM,45.0,27.0,49,29.79,10.0,WNW,23.0,29.9,N/A,,Partly Cloudy,300,2013-03-09 13:51:00
7:51 AM,46.9,26.1,44,29.80,10.0,WNW,19.6,33.4,N/A,,Scattered Clouds,290,2013-03-09 14:51:00
8:51 AM,48.0,26.1,42,29.81,10.0,West,21.9,31.1,N/A,,Scattered Clouds,270,2013-03-09 15:51:00
9:51 AM,51.1,27.0,39,29.80,10.0,West,21.9,33.4,N/A,,Scattered Clouds,270,2013-03-09 16:51:00
10:51 AM,54.0,25.0,33,29.79,10.0,WSW,20.7,34.5,N/A,,Scattered Clouds,250,2013-03-09 17:51:00
11:51 AM,55.0,25.0,31,29.77,10.0,West,21.9,38.0,N/A,,Scattered Clouds,280,2013-03-09 18:51:00
12:51 PM,57.9,19.0,22,29.73,10.0,West,27.6,33.4,N/A,,Scattered Clouds,260,2013-03-09 19:51:00
1:51 PM,57.9,18.0,21,29.73,10.0,WNW,13.8,36.8,N/A,,Scattered Clouds,290,2013-03-09 20:51:00
2:51 PM,57.0,19.9,24,29.74,10.0,West,21.9,31.1,N/A,,Partly Cloudy,280,2013-03-09 21:51:00
3:51 PM,55.9,18.0,23,29.76,10.0,West,20.7,40.3,N/A,,Scattered Clouds,280,2013-03-09 22:51:00
4:51 PM,53.1,19.0,26,29.79,10.0,WNW,28.8,36.8,N/A,,Scattered Clouds,300,2013-03-09 23:51:00
5:51 PM,51.1,19.9,29,29.78,10.0,WNW,24.2,36.8,N/A,,Scattered Clouds,290,2013-03-10 00:51:00
6:51 PM,50.0,19.9,31,29.86,10.0,NNW,18.4,26.5,N/A,,Scattered Clouds,330,2013-03-10 01:51:00
7:51 PM,48.0,23.0,37,29.88,10.0,NW,19.6,26.5,N/A,,Scattered Clouds,320,2013-03-10 02:51:00
8:51 PM,46.9,25.0,42,29.90,10.0,NW,19.6,26.5,N/A,,Scattered Clouds,310,2013-03-10 03:51:00
9:51 PM,46.0,27.0,47,29.88,10.0,WNW,27.6,36.8,N/A,,Partly Cloudy,290,2013-03-10 04:51:00
10:51 PM,45.0,28.0,52,29.87,10.0,West,23.0,31.1,N/A,,Partly Cloudy,270,2013-03-10 05:51:00
11:51 PM,45.0,27.0,49,29.89,10.0,West,20.7,25.3,N/A,,Partly Cloudy,280,2013-03-10 06:51:00